This is the latest recevied weather packets stored in our database for station/object N5SOR-1. If no packets are shown the sender has not sent any weather packets the latest 10 day(s).
| Time | Temp. | Humidity | Pressure | Rain* | Wind** | Luminosity | Snow |
|---|---|---|---|---|---|---|---|
| 1777675621 | 15° C | 79% | 1014.9 hPa | 0 mm | - | 283 W/m² | - |
| 1777674960 | 14.44° C | 80% | 1014.5 hPa | 0 mm | - | 193 W/m² | - |
| 1777674301 | 14.44° C | 79% | 1014.7 hPa | 0 mm | - | 183 W/m² | - |
| 1777673639 | 15° C | 79% | 1014.6 hPa | 0 mm | - | 346 W/m² | - |
| 1777672978 | 14.44° C | 81% | 1014.3 hPa | 0 mm | - | 555 W/m² | - |
| 1777672318 | 14.44° C | 80% | 1014.3 hPa | 0 mm | - | 322 W/m² | - |
| 1777671657 | 14.44° C | 80% | 1014.3 hPa | 0 mm | - | 250 W/m² | - |
| 1777670996 | 14.44° C | 82% | 1014.3 hPa | 0 mm | - | 350 W/m² | - |
| 1777670336 | 14.44° C | 82% | 1014.4 hPa | 0 mm | - | 355 W/m² | - |
| 1777669675 | 13.89° C | 84% | 1014.5 hPa | 0 mm | - | 383 W/m² | - |
| 1777669015 | 13.33° C | 85% | 1014.6 hPa | 0 mm | - | 276 W/m² | - |
| 1777668354 | 13.33° C | 85% | 1014.7 hPa | 0 mm | - | 158 W/m² | - |
| 1777667693 | 13.33° C | 86% | 1014.5 hPa | 0 mm | - | 218 W/m² | - |
| 1777667033 | 13.33° C | 87% | 1014.2 hPa | 0.25 mm | - | 322 W/m² | - |
| 1777666372 | 13.33° C | 87% | 1014 hPa | 0.51 mm | - | 258 W/m² | - |
| 1777665712 | 13.33° C | 88% | 1013.7 hPa | 3.05 mm | - | 243 W/m² | - |
| 1777665051 | 13.33° C | 88% | 1014 hPa | 3.81 mm | - | 355 W/m² | - |
| 1777664390 | 13.33° C | 88% | 1013.5 hPa | 4.06 mm | - | 232 W/m² | - |
| 1777663730 | 12.78° C | 87% | 1014.4 hPa | 3.81 mm | - | 257 W/m² | - |
| 1777663069 | 12.78° C | 87% | 1014.6 hPa | 3.81 mm | - | 100 W/m² | - |
| 1777662408 | 12.78° C | 87% | 1015.3 hPa | 2.79 mm | - | 47 W/m² | - |
| 1777661748 | 12.78° C | 87% | 1014.9 hPa | 0.76 mm | - | 46 W/m² | - |
| 1777661087 | 13.33° C | 87% | 1014.6 hPa | 0.51 mm | - | 39 W/m² | - |
| 1777660427 | 13.33° C | 86% | 1014.3 hPa | 0.25 mm | - | 76 W/m² | - |
| 1777659766 | 13.89° C | 85% | 1014 hPa | 0.25 mm | - | 97 W/m² | - |
* Rain latest hour (hover to see other rain measurements)
** Current wind speed in m/s (hover to see current wind gust speed)